Leadville, CO

5:45 PM MDT on September 25, 2017 (GMT -0600)
Lake County

Weather History for KLXV - July, 2013

Change the Weather History Date:

Tuesday, July 2, 2013

  Actual Average Record
Temperature  
Mean Temperature 55 °F -  
Max Temperature 72 °F 70 °F 83 °F (1990)
Min Temperature 37 °F 36 °F 28 °F (1989)
Degree Days  
Heating Degree Days 10 12  
Month to date heating degree days 22 24  
Since 1 June heating degree days 393 504  
Since 1 July heating degree days 22 24  
Cooling Degree Days 0 0  
Month to date cooling degree days 0 0  
Year to date cooling degree days 0 0  
Since 1 June cooling degree days 0 0  
Growing Degree Days 4 (Base 50)    
Moisture  
Dew Point 32 °F    
Average Humidity 55    
Maximum Humidity 93    
Minimum Humidity 17    
Precipitation  
Precipitation 0.00 in 0.04 in 0.15 in (1988)
Month to date precipitation 0.00 0.08  
Year to date precipitation 7.46 5.15  
Sea Level Pressure  
Sea Level Pressure 30.06 in    
Wind  
Wind Speed 7 mph (North)    
Max Wind Speed 32 mph    
Max Gust Speed 43 mph    
Visibility 10 miles    
Events Thunderstorm    
T = Trace of Precipitation, MM = Missing Value Source: NWS Daily Summary

Daily Weather History Graph

Daily Weather History Graph

Search for Another Location

Airport or City:

Trip Planner

Search our weather history database for the weather conditions in past years. The results will help you decide how hot, cold, wet, or windy it might be!

Date:

Astronomy

Jul. 02, 2013 Rise Set
Actual Time 5:43 AM MDT 8:35 PM MDT
Civil Twilight 5:11 AM MDT 9:07 PM MDT
Nautical Twilight 4:30 AM MDT 9:47 PM MDT
Astronomical Twilight 3:44 AM MDT 10:34 PM MDT
Moon 1:46 AM MDT (7/2) 3:52 PM MDT (7/2)
Length of Visible Light 15h 56m
Length of Day
14h 52m
Waning Crescent, 26% of the Moon is Illuminated
Jul 2
Waning Crescent
Jul 8
New
Jul 15
First Quarter
Jul 22
Full
Jul 29
Last Quarter

Hourly Weather History & Observations

Time (MDT) Temp. Windchill Dew Point Humidity Pressure Visibility Wind Dir Wind Speed Gust Speed Precip Events Conditions
12:53 AM 42.1 °F 38.4 °F 37.9 °F 85% 30.06 in 10.0 mi ENE 5.8 mph - N/A   Clear
1:53 AM 41.0 °F 39.0 °F 37.0 °F 86% 30.05 in 10.0 mi ENE 3.5 mph - N/A   Clear
2:53 AM 42.1 °F 40.2 °F 37.9 °F 85% 30.05 in 10.0 mi East 3.5 mph - N/A   Clear
3:53 AM 41.0 °F 39.0 °F 39.0 °F 93% 30.04 in 10.0 mi SE 3.5 mph - N/A   Clear
4:53 AM 37.9 °F 35.5 °F 36.0 °F 93% 30.09 in 10.0 mi NNE 3.5 mph - N/A   Clear
5:53 AM 37.0 °F 34.5 °F 36.0 °F 96% 30.10 in 10.0 mi NNE 3.5 mph - N/A   Clear
6:53 AM 41.0 °F - 37.9 °F 89% 30.09 in 10.0 mi Calm Calm - N/A   Clear
8:53 AM 57.0 °F - 36.0 °F 45% 30.04 in 10.0 mi Variable 4.6 mph - N/A   Clear
9:53 AM 60.1 °F - 30.9 °F 33% 30.04 in 10.0 mi NNW 9.2 mph 18.4 mph N/A   Clear
10:53 AM 63.0 °F - 30.9 °F 30% 30.04 in 10.0 mi North 8.1 mph 17.3 mph N/A   Clear
11:53 AM 66.0 °F - 30.0 °F 26% 30.01 in 10.0 mi NNW 10.4 mph 24.2 mph N/A   Partly Cloudy
12:53 PM 69.1 °F - 25.0 °F 19% 29.99 in 10.0 mi North 17.3 mph 25.3 mph N/A   Partly Cloudy
1:53 PM 69.1 °F - 23.0 °F 18% 30.00 in 10.0 mi North 13.8 mph 26.5 mph N/A   Clear
2:53 PM 66.9 °F - 21.0 °F 17% 29.98 in 10.0 mi North 12.7 mph 24.2 mph N/A   Partly Cloudy
3:53 PM 71.1 °F - 26.1 °F 19% 29.95 in 10.0 mi NW 17.3 mph 28.8 mph N/A   Partly Cloudy
4:53 PM 66.9 °F - 27.0 °F 22% 29.97 in 10.0 mi WNW 8.1 mph 24.2 mph N/A   Mostly Cloudy
5:23 PM 68.0 °F - 30.2 °F 24% 30.44 in 10.0 mi West 17.3 mph 23.0 mph N/A Thunderstorm Mostly Cloudy
5:38 PM 66.2 °F - 30.2 °F 26% 30.43 in 10.0 mi West 15.0 mph 25.3 mph N/A   Mostly Cloudy
5:53 PM 64.9 °F - 30.0 °F 27% 29.99 in 10.0 mi NW 11.5 mph 23.0 mph N/A Thunderstorm Mostly Cloudy
6:10 PM 64.4 °F - 30.2 °F 28% 30.45 in 10.0 mi North 16.1 mph 23.0 mph N/A   Overcast
6:53 PM 61.0 °F - 28.9 °F 30% 30.03 in 10.0 mi North 15.0 mph 23.0 mph 0.00 in   Overcast
7:53 PM 61.0 °F - 32.0 °F 34% 29.95 in 10.0 mi North 3.5 mph - N/A   Clear
8:53 PM 57.0 °F - 35.1 °F 44% 29.94 in 10.0 mi SSW 8.1 mph - N/A   Mostly Cloudy
9:53 PM 51.1 °F - 39.0 °F 63% 29.96 in 10.0 mi East 3.5 mph - N/A   Partly Cloudy
10:53 PM 48.0 °F - 39.0 °F 71% 29.98 in 10.0 mi Calm Calm - N/A   Clear
11:53 PM 45.0 °F 42.6 °F 37.0 °F 74% 29.97 in 10.0 mi ENE 4.6 mph - N/A   Clear